When you browse on this site, cookies collect data to enhance your experience and personalize the content and advertising you see.
Visit our Privacy Policy to learn more. By continuing to use the site, you agree to this use of cookies and data.
  • In Hungary
  • List of Countries
  • For 7 days
  • Water Temperature
  • Weather Map
  • News
  • Weather Widgets
  • user-avatar
    Login

    Hourly Weather Ploskaya Dubrava

    Today, 15 October, Tuesday

    Time Temperature Precipitation Wind Pressure Humidity
    00:00 +15°C° 0 mm 7 mps 747 mmHg 79%
    01:00 +14°C° 0 mm 6 mps 747 mmHg 79%
    02:00 +14°C° 0 mm 6 mps 747 mmHg 78%
    03:00 +14°C° 0 mm 6 mps 746 mmHg 78%
    04:00 +13°C° 0 mm 6 mps 746 mmHg 80%
    05:00 +13°C° 0 mm 5 mps 746 mmHg 82%
    06:00 +12°C° 0 mm 5 mps 746 mmHg 83%
    07:00 +13°C° 0 mm 6 mps 747 mmHg 82%
    08:00 +13°C° 0 mm 6 mps 747 mmHg 81%
    09:00 +14°C° 0 mm 6 mps 747 mmHg 79%
    10:00 +14°C° 0 mm 6 mps 748 mmHg 73%
    11:00 +15°C° 0 mm 6 mps 748 mmHg 66%
    12:00 +16°C° 0 mm 6 mps 748 mmHg 60%
    13:00 +15°C° 0 mm 6 mps 749 mmHg 62%
    14:00 +15°C° 0 mm 6 mps 750 mmHg 64%
    15:00 +14°C° 0 mm 6 mps 750 mmHg 66%
    16:00 +13°C° 0 mm 5 mps 751 mmHg 68%
    17:00 +13°C° 0 mm 4 mps 751 mmHg 70%
    18:00 +12°C° 0 mm 4 mps 752 mmHg 73%
    19:00 +11°C° 0 mm 3 mps 753 mmHg 76%
    20:00 +9°C° 0 mm 3 mps 753 mmHg 79%
    21:00 +8°C° 0 mm 3 mps 754 mmHg 83%
    22:00 +8°C° 0 mm 3 mps 754 mmHg 83%
    23:00 +7°C° 0 mm 3 mps 755 mmHg 84%

    Tomorrow, 16 October, Wednesday

    Time Temperature Precipitation Wind Pressure Humidity
    00:00 +5°C° 0 mm 3 mps 755 mmHg 85%
    01:00 +5°C° 0 mm 3 mps 756 mmHg 85%
    02:00 +4°C° 0 mm 3 mps 756 mmHg 85%
    03:00 +4°C° 0 mm 2 mps 757 mmHg 85%
    04:00 +4°C° 0 mm 2 mps 757 mmHg 85%
    05:00 +3°C° 0 mm 2 mps 757 mmHg 85%
    06:00 +3°C° 0 mm 2 mps 758 mmHg 85%
    07:00 +3°C° 0 mm 2 mps 758 mmHg 81%
    08:00 +3°C° 0 mm 2 mps 758 mmHg 76%
    09:00 +4°C° 0 mm 2 mps 759 mmHg 72%
    10:00 +5°C° 0 mm 2 mps 759 mmHg 66%
    11:00 +6°C° 0 mm 2 mps 759 mmHg 60%
    12:00 +7°C° 0 mm 2 mps 759 mmHg 53%
    13:00 +8°C° 0 mm 1 mps 759 mmHg 52%
    14:00 +9°C° 0 mm 1 mps 758 mmHg 50%
    15:00 +9°C° 0 mm 1 mps 758 mmHg 48%
    16:00 +8°C° 0 mm 1 mps 758 mmHg 53%
    17:00 +6°C° 0 mm 2 mps 758 mmHg 57%
    18:00 +5°C° 0 mm 2 mps 758 mmHg 62%
    19:00 +5°C° 0 mm 2 mps 758 mmHg 64%
    20:00 +5°C° 0 mm 2 mps 757 mmHg 66%
    21:00 +5°C° 0 mm 2 mps 757 mmHg 68%
    22:00 +4°C° 0 mm 3 mps 757 mmHg 68%
    23:00 +4°C° 0 mm 4 mps 757 mmHg 68%

    Day after tomorrow, 17 October, Thursday

    Time Temperature Precipitation Wind Pressure Humidity
    00:00 +5°C° 0 mm 4 mps 756 mmHg 68%
    01:00 +5°C° 0 mm 4 mps 756 mmHg 68%
    02:00 +5°C° 0 mm 4 mps 756 mmHg 68%
    03:00 +5°C° 0 mm 4 mps 756 mmHg 68%
    04:00 +5°C° 0 mm 4 mps 755 mmHg 69%
    05:00 +5°C° 0 mm 4 mps 755 mmHg 70%
    06:00 +4°C° 0 mm 4 mps 755 mmHg 72%
    07:00 +5°C° 0 mm 4 mps 754 mmHg 72%
    08:00 +6°C° 0 mm 5 mps 754 mmHg 73%
    09:00 +7°C° 0 mm 5 mps 754 mmHg 73%
    10:00 +9°C° 0 mm 6 mps 753 mmHg 71%
    11:00 +10°C° 0 mm 6 mps 753 mmHg 68%
    12:00 +13°C° 0 mm 6 mps 753 mmHg 66%
    13:00 +13°C° 0 mm 6 mps 752 mmHg 66%
    14:00 +14°C° 0 mm 6 mps 752 mmHg 66%
    15:00 +14°C° 0 mm 6 mps 751 mmHg 67%
    16:00 +13°C° 0 mm 5 mps 751 mmHg 71%
    17:00 +12°C° 0 mm 5 mps 751 mmHg 76%
    18:00 +11°C° 0 mm 4 mps 751 mmHg 81%
    19:00 +11°C° 0 mm 4 mps 751 mmHg 84%
    20:00 +11°C° 0 mm 3 mps 751 mmHg 87%
    21:00 +10°C° 0 mm 3 mps 751 mmHg 89%
    22:00 +10°C° 0 mm 3 mps 750 mmHg 91%
    23:00 +10°C° 0 mm 3 mps 750 mmHg 92%

    18 October, Friday

    Time Temperature Precipitation Wind Pressure Humidity
    00:00 +10°C° 0 mm 3 mps 750 mmHg 94%
    01:00 +10°C° 0.1 mm 2 mps 750 mmHg 94%
    02:00 +10°C° 0.1 mm 2 mps 749 mmHg 95%
    03:00 +9°C° 0.1 mm 2 mps 749 mmHg 95%
    04:00 +10°C° 0.4 mm 2 mps 749 mmHg 96%
    05:00 +11°C° 0.4 mm 1 mps 749 mmHg 96%
    06:00 +11°C° 0.4 mm 1 mps 749 mmHg 96%
    07:00 +11°C° 1.7 mm 1 mps 749 mmHg 96%
    08:00 +11°C° 1.7 mm 1 mps 749 mmHg 96%
    09:00 +12°C° 1.7 mm 1 mps 749 mmHg 96%
    10:00 +12°C° 2.3 mm 2 mps 749 mmHg 95%
    11:00 +11°C° 2.3 mm 3 mps 750 mmHg 95%
    12:00 +10°C° 2.3 mm 3 mps 750 mmHg 94%
    13:00 +10°C° 0.4 mm 4 mps 751 mmHg 92%
    14:00 +8°C° 0.4 mm 5 mps 751 mmHg 90%
    15:00 +7°C° 0.4 mm 5 mps 752 mmHg 88%
    16:00 +6°C° 0 mm 5 mps 752 mmHg 86%
    17:00 +5°C° 0 mm 5 mps 752 mmHg 85%
    18:00 +5°C° 0 mm 5 mps 753 mmHg 83%
    19:00 +5°C° 0 mm 5 mps 753 mmHg 82%
    20:00 +3°C° 0 mm 5 mps 754 mmHg 81%
    21:00 +4°C° 0 mm 4 mps 755 mmHg 79%
    22:00 +3°C° 0 mm 4 mps 755 mmHg 81%
    23:00 +3°C° 0 mm 4 mps 755 mmHg 83%

    19 October, Saturday

    Time Temperature Precipitation Wind Pressure Humidity
    00:00 +2°C° 0 mm 3 mps 756 mmHg 84%
    01:00 +2°C° 0 mm 3 mps 756 mmHg 85%
    02:00 +2°C° 0 mm 3 mps 756 mmHg 85%
    03:00 +1°C° 0 mm 4 mps 756 mmHg 86%
    04:00 +1°C° 0 mm 4 mps 756 mmHg 86%
    05:00 0°C° 0 mm 4 mps 757 mmHg 86%
    06:00 +1°C° 0 mm 3 mps 757 mmHg 86%
    07:00 +2°C° 0 mm 3 mps 757 mmHg 84%
    08:00 +2°C° 0 mm 3 mps 758 mmHg 83%
    09:00 +2°C° 0 mm 3 mps 758 mmHg 81%
    10:00 +3°C° 0 mm 3 mps 758 mmHg 80%
    11:00 +3°C° 0 mm 3 mps 758 mmHg 78%
    12:00 +4°C° 0 mm 3 mps 758 mmHg 77%
    13:00 +4°C° 0 mm 3 mps 758 mmHg 76%
    14:00 +5°C° 0 mm 2 mps 758 mmHg 76%
    15:00 +5°C° 0 mm 2 mps 758 mmHg 75%
    16:00 +5°C° 0 mm 2 mps 758 mmHg 76%
    17:00 +5°C° 0 mm 2 mps 758 mmHg 78%
    18:00 +5°C° 0 mm 2 mps 758 mmHg 79%
    19:00 +6°C° 0 mm 1 mps 759 mmHg 79%
    20:00 +6°C° 0 mm 1 mps 759 mmHg 79%
    21:00 +6°C° 0 mm 1 mps 759 mmHg 79%
    22:00 +6°C° 0 mm 1 mps 759 mmHg 80%
    23:00 +6°C° 0 mm 1 mps 759 mmHg 80%

    20 October, Sunday

    Time Temperature Precipitation Wind Pressure Humidity
    00:00 +6°C° 0 mm 1 mps 759 mmHg 81%
    01:00 +6°C° 0 mm 1 mps 759 mmHg 82%
    02:00 +6°C° 0 mm 1 mps 759 mmHg 83%
    03:00 +6°C° 0 mm 1 mps 759 mmHg 84%
    04:00 +6°C° 0 mm 1 mps 759 mmHg 84%
    05:00 +6°C° 0 mm 1 mps 759 mmHg 85%
    06:00 +6°C° 0 mm 1 mps 759 mmHg 85%
    07:00 +6°C° 0 mm 1 mps 760 mmHg 83%
    08:00 +6°C° 0 mm 1 mps 760 mmHg 82%
    09:00 +7°C° 0 mm 1 mps 760 mmHg 81%
    10:00 +7°C° 0 mm 1 mps 760 mmHg 78%
    11:00 +8°C° 0 mm 1 mps 760 mmHg 76%
    12:00 +8°C° 0 mm 1 mps 761 mmHg 74%
    13:00 +8°C° 0 mm 1 mps 760 mmHg 73%
    14:00 +8°C° 0 mm 1 mps 760 mmHg 73%
    15:00 +9°C° 0 mm 1 mps 760 mmHg 73%
    16:00 +8°C° 0 mm 1 mps 760 mmHg 75%
    17:00 +8°C° 0 mm 1 mps 760 mmHg 77%
    18:00 +7°C° 0 mm 1 mps 760 mmHg 79%
    19:00 +7°C° 0 mm 1 mps 760 mmHg 80%
    20:00 +7°C° 0 mm 1 mps 760 mmHg 80%
    21:00 +7°C° 0 mm 1 mps 761 mmHg 81%
    22:00 +7°C° 0 mm 1 mps 761 mmHg 80%
    23:00 +7°C° 0 mm 1 mps 761 mmHg 80%
    Show more